Home > Weather > Samsun > Past weeks

Flag for Turkey Weather for the Past 2 Weeks in Samsun, Turkey

Now
55 °F

Partly cloudy.


Feels Like: 55 °F
Forecast: 46 / 70 °F
Wind: No wind

Location: Samsun / Carsamba

Current Time: May 3, 2016 at 2:17:44 AM

Latest Report: May 3, 2016 at 12:50 AM


Visibility: N/A

Pressure: 29.92 "Hg

Humidity: 88%

Dew Point: 52 °F

Location of SamsunLocation

Historic Weather in Samsun — Graph

°F

Samsun Temperature Yesterday

Maximum temperature yesterday: 66 °F (at 12:50 PM)
Minimum temperature yesterday: 41 °F (at 2:50 AM)
Average temperature yesterday: 55 °F

High & Low Weather Summary for the Past Weeks

 TemperatureHumidityPressure
High91 °F (Apr 20, 12:50 PM)100% (Apr 18, 2:50 AM)30.36 "Hg (Apr 18, 2:50 AM)
Low39 °F (Apr 22, 5:50 AM)20% (Apr 19, 2:50 PM)29.42 "Hg (Apr 25, 12:50 AM)
Average58 °F76%29.96 "Hg
* Reported Apr 17 11:50 PM — May 2 11:50 PM, Samsun, Weather by CustomWeather, © 2016

Note: Actual official high and low records may vary slightly from our data, if they occured in-between our weather recording intervals... More about our weather records

Advertising

Samsun Weather History for the Previous 24 Hours

Scroll right to see more
 ConditionsComfort  
Time TempWeatherWind HumidityBarometerVisibility
11:50 PM
Mon, May 2
55 °FPartly cloudy.5 mph88%29.95 "HgN/A
10:50 PM55 °FPartly cloudy.3 mph88%29.95 "HgN/A
9:50 PM55 °FPartly cloudy.5 mph88%29.95 "HgN/A
8:50 PM55 °FPartly cloudy.3 mph88%29.95 "HgN/A
7:50 PM55 °FBroken clouds.5 mph88%29.98 "HgN/A
6:50 PM57 °FBroken clouds.7 mph82%29.98 "HgN/A
5:50 PM61 °FBroken clouds.9 mph68%29.98 "HgN/A
4:50 PM63 °FBroken clouds.7 mph59%30.01 "HgN/A
3:50 PM64 °FBroken clouds.9 mph56%30.01 "HgN/A
2:50 PM66 °FBroken clouds.9 mph52%30.01 "HgN/A
1:50 PM66 °FBroken clouds.8 mph56%30.01 "HgN/A
12:50 PM66 °FBroken clouds.8 mph56%30.04 "HgN/A
11:50 AM64 °FBroken clouds.7 mph60%30.04 "HgN/A
10:50 AM63 °FBroken clouds.5 mph64%30.07 "HgN/A
9:50 AM61 °FPassing clouds.5 mph68%30.07 "HgN/A
8:50 AM59 °FSunny.2 mph68%30.07 "Hg10 mi
7:50 AM54 °FSunny.No wind94%30.07 "Hg10 mi
6:50 AM46 °FSunny.1 mph100%30.07 "Hg10 mi
5:50 AM43 °FClear.1 mph93%30.07 "Hg10 mi
4:50 AM43 °FClear.1 mph100%30.07 "Hg10 mi
3:50 AM43 °FClear.3 mph100%30.09 "Hg10 mi
2:50 AM41 °FClear.5 mph100%30.09 "Hg10 mi
Weather by CustomWeather, © 2016

See weather overviewHow to use our weather pages